Tracking 19562 objects as of 24-Mar-2019
HD Live streaming from Space Station
objects crossing your sky now

NAVSTAR 17 (USA 49)

Track NAVSTAR 17 (USA 49) now!
NAVSTAR 17 (USA 49) is classified as:


NORAD ID: 20361
Int'l Code: 1989-097A
Perigee: 21,179.0 km
Apogee: 21,311.0 km
Inclination: 54.5 °
Period: 761.2 minutes
Semi major axis: 27615 km
RCS: 2.5118 m2 (large)
Launch date: December 11, 1989
Source: United States (US)
Launch site: AIR FORCE EASTERN TEST RANGE (AFETR)
aabbcc
Your satellite tracking list
Your tracking list is empty




NASA's NSSDC Master Catalog

Two Line Element Set (TLE):
1 20361U 89097A   19082.78737075 -.00000008  00000-0  00000+0 0  9997
2 20361  54.4866 103.8936 0023897 280.4135 251.2345  1.89174402199354
Source of the keplerian elements: AFSPC